Location: All Nations United Methodist Church
(33.0215°N, 96.7483°W)
Time: 14:50:34
(UTC+00:00)

Chandra Rocket (1) - Pass Details

Date: 24 January 2021
Orbit: 347 x 11000 km, 28.4° (Epoch: 07 March)

Event Time Altitude Azimuth Distance (km) Brightness Sun altitude
Exits shadow 12:44:33 - 261° (W) 2,280 4.4 -9.2°
Reaches altitude 10° 12:45:00 10° 259° (W) 2,075 4.2 -9.1°
Maximum altitude 12:48:37 32° 194° (SSW) 733 2.5 -8.4°
Drops below altitude 10° 12:50:55 10° 125° (SE) 1,306 5.2 -7.9°
Sets 12:52:43 0° 113° (ESE) 2,143 7.3 -7.5°
